| time (UTC) | temp F | wind direction | speed MPH | gust MPH | rain 1hr in | rain 24hr in | rain mn in | humidity % | barometer mb |
| 20260902114539 | 58 | 101 | 0.0 | 0.0 | 3.42 | 0.00 | 0.01 | 92 | 1009.3 |
| 20260902113040 | 58 | 69 | 0.0 | 0.0 | 0.00 | 0.21 | 0.01 | 91 | 1009.3 |
| 20260902111548 | 58 | 9 | 0.0 | 1.0 | 0.00 | 0.21 | 0.01 | 91 | 1009.2 |
| 20260902110038 | 57 | 78 | 0.0 | 0.0 | 0.00 | 0.21 | 0.01 | 91 | 1009.3 |
| 20260902104541 | 58 | 24 | 0.0 | 0.0 | 0.00 | 0.21 | 0.01 | 91 | 1009.4 |
| 20260902103034 | 58 | 109 | 0.0 | 0.0 | 0.00 | 0.21 | 0.01 | 92 | 1009.3 |
| 20260902101538 | 57 | 47 | 0.0 | 0.0 | 0.01 | 0.21 | 0.01 | 92 | 1009.3 |
| 20260902100033 | 57 | 107 | 0.0 | 0.0 | 0.01 | 0.21 | 0.01 | 93 | 1009.3 |
| 20260902094526 | 56 | 173 | 0.0 | 0.0 | 0.01 | 0.21 | 0.01 | 94 | 1009.7 |
| 20260902093025 | 56 | 53 | 0.0 | 0.0 | 0.01 | 0.21 | 0.01 | 94 | 1009.8 |
| 20260902091536 | 56 | 112 | 0.0 | 0.0 | 0.00 | 0.20 | 0.00 | 95 | 1010.0 |
| 20260902090022 | 56 | 35 | 0.0 | 0.0 | 0.00 | 0.20 | 0.00 | 95 | 1010.0 |
| 20260902084521 | 56 | 189 | 0.0 | 0.0 | 0.00 | 0.20 | 0.00 | 95 | 1010.1 |
| 20260902083020 | 55 | 170 | 0.0 | 0.0 | 0.00 | 0.20 | 0.00 | 95 | 1010.0 |
| 20260902081519 | 55 | 34 | 0.0 | 0.0 | 0.00 | 0.20 | 0.00 | 95 | 1010.1 |
| 20260902080017 | 55 | 44 | 0.0 | 0.0 | 0.00 | 0.20 | 0.00 | 95 | 1010.0 |
| 20260902074516 | 56 | 44 | 0.0 | 0.0 | 0.00 | 0.20 | 0.00 | 95 | 1010.0 |
| 20260902073018 | 56 | 64 | 0.0 | 0.0 | 0.00 | 0.20 | 0.00 | 95 | 1010.0 |
| 20260902071521 | 55 | 40 | 0.0 | 0.0 | 0.00 | 0.20 | 0.00 | 95 | 1010.0 |
| 20260902070016 | 56 | 39 | 0.0 | 0.0 | 0.00 | 0.20 | 0.00 | 95 | 1009.9 |
| 20260902064511 | 56 | 31 | 0.0 | 0.0 | 0.00 | 0.20 | 0.20 | 94 | 1010.0 |
| 20260902063014 | 56 | 44 | 0.0 | 0.0 | 0.00 | 0.20 | 0.20 | 94 | 1010.1 |
| 20260902061510 | 56 | 44 | 0.0 | 0.0 | 0.00 | 0.20 | 0.20 | 94 | 1010.1 |
| 20260902060016 | 56 | 44 | 0.0 | 0.0 | 0.01 | 0.20 | 0.20 | 94 | 1010.2 |
| 20260902054512 | 56 | 50 | 0.0 | 0.0 | 0.01 | 0.20 | 0.20 | 93 | 1010.3 |
| 20260902053011 | 55 | 50 | 0.0 | 0.0 | 0.01 | 0.20 | 0.20 | 93 | 1010.3 |
| 20260902051507 | 56 | 50 | 0.0 | 0.0 | 0.01 | 0.20 | 0.20 | 93 | 1010.3 |
| 20260902050009 | 56 | 50 | 0.0 | 0.0 | 0.00 | 0.19 | 0.19 | 92 | 1010.3 |
| 20260902044506 | 56 | 49 | 0.0 | 0.0 | 0.00 | 0.19 | 0.19 | 91 | 1010.1 |
| 20260902043003 | 57 | 237 | 0.0 | 0.0 | 0.00 | 0.19 | 0.19 | 91 | 1010.0 |
| 20260902041608 | 57 | 236 | 0.0 | 0.0 | 0.00 | 0.19 | 0.19 | 90 | 1009.7 |
| 20260902040100 | 58 | 237 | 0.0 | 0.0 | 0.00 | 0.19 | 0.19 | 90 | 1009.6 |
| 20260902034559 | 58 | 200 | 0.0 | 0.0 | 0.00 | 0.19 | 0.19 | 90 | 1009.2 |
| 20260902033110 | 58 | 40 | 0.0 | 5.0 | 0.00 | 0.19 | 0.19 | 91 | 1008.8 |
| 20260902031557 | 59 | 58 | 0.0 | 0.0 | 0.00 | 0.19 | 0.19 | 90 | 1008.9 |
| 20260902030056 | 59 | 13 | 0.0 | 0.0 | 0.00 | 0.19 | 0.19 | 90 | 1009.6 |
| 20260902024556 | 60 | 13 | 0.0 | 0.0 | 0.00 | 0.19 | 0.19 | 89 | 1009.7 |
| 20260902023108 | 60 | 13 | 0.0 | 0.0 | 0.00 | 0.19 | 0.19 | 88 | 1010.0 |
| 20260902021612 | 61 | 13 | 0.0 | 0.0 | 0.00 | 0.19 | 0.19 | 88 | 1009.7 |
| 20260902020059 | 61 | 13 | 0.0 | 1.0 | 0.00 | 0.19 | 0.19 | 87 | 1009.8 |
| 20260902014554 | 61 | 180 | 0.0 | 0.0 | 0.00 | 0.19 | 0.19 | 85 | 1010.0 |
| 20260902013054 | 61 | 206 | 0.0 | 0.0 | 0.00 | 0.19 | 0.19 | 84 | 1010.1 |
| 20260902011554 | 62 | 218 | 0.0 | 0.0 | 0.00 | 0.19 | 0.19 | 84 | 1010.0 |
| 20260902010100 | 62 | 237 | 0.0 | 0.0 | 0.00 | 0.19 | 0.19 | 82 | 1010.1 |
| 20260902004553 | 63 | 202 | 0.0 | 0.0 | 0.00 | 0.19 | 0.19 | 80 | 1010.1 |
| 20260902003052 | 64 | 258 | 0.0 | 0.0 | 0.00 | 0.19 | 0.19 | 78 | 1010.0 |
| 20260902001552 | 65 | 232 | 0.0 | 0.0 | 0.00 | 0.19 | 0.19 | 76 | 1009.9 |
| 20260902000056 | 65 | 227 | 0.0 | 0.0 | 0.00 | 0.19 | 0.19 | 74 | 1009.7 |
| 20260901234609 | 66 | 223 | 0.0 | 0.0 | 0.00 | 0.19 | 0.19 | 73 | 1009.5 |
| 20260901233050 | 68 | 248 | 0.0 | 0.0 | 0.00 | 0.19 | 0.19 | 74 | 1009.4 |
| 20260901231551 | 68 | 251 | 0.0 | 6.0 | 0.00 | 0.19 | 0.19 | 74 | 1009.4 |
| 20260901230125 | 67 | 240 | 0.0 | 1.0 | 0.00 | 0.19 | 0.19 | 74 | 1009.5 |
| 20260901224542 | 66 | 225 | 0.0 | 0.0 | 0.00 | 0.19 | 0.19 | 82 | 1009.5 |
| 20260901223104 | 65 | 208 | 0.0 | 1.0 | 0.00 | 0.19 | 0.19 | 83 | 1009.7 |
| 20260901221540 | 65 | 256 | 0.0 | 0.0 | 0.00 | 0.19 | 0.19 | 84 | 1009.9 |
| 20260901220042 | 64 | 301 | 0.0 | 0.0 | 0.00 | 0.19 | 0.19 | 83 | 1010.0 |
| 20260901214537 | 64 | 173 | 0.0 | 0.0 | 0.00 | 0.19 | 0.19 | 89 | 1010.0 |
| 20260901213039 | 63 | 221 | 0.0 | 0.0 | 0.00 | 0.19 | 0.19 | 88 | 1010.1 |
| 20260901211541 | 63 | 229 | 0.0 | 0.0 | 0.00 | 0.19 | 0.19 | 91 | 1010.1 |
| 20260901210028 | 63 | 230 | 0.0 | 0.0 | 0.00 | 0.19 | 0.19 | 91 | 1010.1 |
| 20260901204540 | 64 | 225 | 0.0 | 0.0 | 0.00 | 0.19 | 0.19 | 89 | 1010.0 |
| 20260901203028 | 65 | 262 | 0.0 | 0.0 | 0.00 | 0.19 | 0.19 | 90 | 1009.8 |
| 20260901201524 | 64 | 112 | 0.0 | 1.0 | 0.00 | 0.19 | 0.19 | 93 | 1010.0 |
| 20260901200036 | 64 | 57 | 0.0 | 0.0 | 0.00 | 0.19 | 0.19 | 94 | 1010.1 |
| 20260901194522 | 62 | 191 | 0.0 | 0.0 | 0.00 | 0.19 | 0.19 | 94 | 1010.4 |
| 20260901193117 | 61 | 191 | 0.0 | 0.0 | 0.01 | 0.19 | 0.19 | 95 | 1010.4 |
| 20260901191516 | 61 | 274 | 0.0 | 0.0 | 0.03 | 0.19 | 0.19 | 95 | 1010.4 |
| 20260901190021 | 60 | 208 | 0.0 | 0.0 | 0.03 | 0.19 | 0.19 | 96 | 1010.3 |
| 20260901184518 | 59 | 234 | 0.0 | 0.0 | 0.06 | 0.19 | 0.19 | 95 | 1010.4 |
| 20260901183031 | 60 | 229 | 0.0 | 6.0 | 0.05 | 0.18 | 0.18 | 95 | 1010.4 |
| 20260901181506 | 60 | 191 | 0.0 | 0.0 | 0.03 | 0.16 | 0.16 | 96 | 1010.3 |
| 20260901180003 | 59 | 190 | 0.0 | 0.0 | 0.04 | 0.16 | 0.16 | 95 | 1010.0 |
| 20260901174603 | 59 | 191 | 0.0 | 0.0 | 0.01 | 0.13 | 0.13 | 95 | 1010.1 |
| 20260901173108 | 59 | 191 | 0.0 | 0.0 | 0.01 | 0.13 | 0.13 | 96 | 1009.9 |
| 20260901171552 | 59 | 191 | 0.0 | 0.0 | 0.01 | 0.13 | 0.13 | 95 | 1009.7 |
| 20260901170048 | 59 | 190 | 0.0 | 0.0 | 0.01 | 0.12 | 0.12 | 95 | 1009.6 |
| 20260901164552 | 59 | 190 | 0.0 | 0.0 | 0.01 | 0.12 | 0.12 | 95 | 1009.6 |
| 20260901163042 | 59 | 191 | 0.0 | 0.0 | 0.02 | 0.12 | 0.12 | 95 | 1009.6 |
| 20260901161540 | 58 | 190 | 0.0 | 0.0 | 0.04 | 0.12 | 0.12 | 95 | 1009.5 |
| 20260901160043 | 58 | 190 | 0.0 | 0.0 | 0.06 | 0.11 | 0.11 | 95 | 1009.4 |
| 20260901154541 | 58 | 344 | 0.0 | 0.0 | 0.11 | 0.11 | 0.11 | 95 | 1009.3 |
| 20260901153040 | 58 | 345 | 0.0 | 0.0 | 0.10 | 0.10 | 0.10 | 95 | 1009.2 |
| 20260901151536 | 58 | 344 | 0.0 | 0.0 | 0.08 | 0.08 | 0.08 | 95 | 1009.2 |
| 20260901150033 | 58 | 345 | 0.0 | 0.0 | 0.05 | 0.05 | 0.05 | 95 | 1009.0 |
| 20260901144537 | 58 | 344 | 0.0 | 0.0 | 0.00 | 0.00 | 0.00 | 95 | 1008.8 |
| 20260901143030 | 58 | 345 | 0.0 | 0.0 | 0.00 | 0.00 | 0.00 | 95 | 1008.6 |
| 20260901141527 | 58 | 344 | 0.0 | 0.0 | 0.00 | 0.00 | 0.00 | 95 | 1008.3 |
| 20260901140031 | 58 | 17 | 0.0 | 0.0 | 0.00 | 0.00 | 0.00 | 95 | 1008.1 |
| 20260901134526 | 58 | 76 | 0.0 | 0.0 | 0.00 | 0.00 | 0.00 | 95 | 1007.9 |
| 20260901133037 | 58 | 76 | 0.0 | 0.0 | 0.00 | 0.00 | 0.00 | 95 | 1008.0 |
| 20260901131628 | 58 | 76 | 0.0 | 0.0 | 0.00 | 0.00 | 0.00 | 95 | 1007.9 |
| 20260901130022 | 58 | 76 | 0.0 | 0.0 | 0.00 | 0.00 | 0.00 | 95 | 1007.8 |
| 20260901124522 | 58 | 76 | 0.0 | 0.0 | 0.00 | 0.00 | 0.00 | 94 | 1008.0 |
| 20260901123021 | 58 | 76 | 0.0 | 0.0 | 0.00 | 0.00 | 0.00 | 94 | 1007.9 |
| 20260901121521 | 58 | 76 | 0.0 | 0.0 | 0.00 | 0.00 | 0.00 | 94 | 1007.8 |
| 20260901120020 | 58 | 76 | 0.0 | 0.0 | 0.00 | 0.00 | 0.00 | 94 | 1007.8 |